This is the latest recevied weather packets stored in our database for station/object OE-11149. If no packets are shown the sender has not sent any weather packets the latest 10 day(s).
| Time | Temp. | Humidity | Pressure | Rain* | Wind** | Luminosity | Snow |
|---|---|---|---|---|---|---|---|
| 1787839520 | 25° C | 38% | 853.9 hPa | 0 mm | - | 556 W/m² | - |
| 1787838920 | 25.56° C | 40% | 853.8 hPa | 0 mm | - | 609 W/m² | - |
| 1787838093 | 25° C | 41% | 853.9 hPa | 0 mm | - | 636 W/m² | - |
| 1787837720 | 24.44° C | 41% | 853.9 hPa | 0 mm | - | 649 W/m² | - |
| 1787837120 | 24.44° C | 45% | 853.9 hPa | 0 mm | - | 662 W/m² | - |
| 1787836293 | 24.44° C | 48% | 854 hPa | 0 mm | - | 669 W/m² | - |
| 1787835919 | 23.89° C | 47% | 854.1 hPa | 0 mm | - | 649 W/m² | - |
| 1787835320 | 23.33° C | 54% | 854.1 hPa | 0 mm | - | 702 W/m² | - |
| 1787834493 | 23.33° C | 52% | 854.1 hPa | 0 mm | - | 517 W/m² | - |
| 1787834119 | 23.89° C | 52% | 854 hPa | 0 mm | - | 735 W/m² | - |
| 1787833520 | 23.89° C | 56% | 854.1 hPa | 0 mm | - | 735 W/m² | - |
| 1787832693 | 23.33° C | 54% | 854.4 hPa | 0 mm | - | 755 W/m² | - |
| 1787832320 | 22.78° C | 54% | 854.2 hPa | 0 mm | - | 729 W/m² | - |
| 1787831719 | 22.78° C | 55% | 854.4 hPa | 0 mm | - | 735 W/m² | - |
| 1787830893 | 22.78° C | 57% | 854.4 hPa | 0 mm | - | 748 W/m² | - |
| 1787830519 | 22.78° C | 55% | 854.6 hPa | 0 mm | - | 735 W/m² | - |
| 1787829919 | 22.22° C | 56% | 854.6 hPa | 0 mm | - | 755 W/m² | - |
| 1787829093 | 21.67° C | 58% | 854.7 hPa | 0 mm | - | 755 W/m² | - |
| 1787828720 | 21.67° C | 58% | 854.7 hPa | 0 mm | - | 748 W/m² | - |
| 1787828120 | 20.56° C | 58% | 854.8 hPa | 0 mm | - | 762 W/m² | - |
| 1787827292 | 20° C | 62% | 854.8 hPa | 0 mm | - | 616 W/m² | - |
| 1787826919 | 19.44° C | 63% | 855 hPa | 0 mm | - | 556 W/m² | - |
| 1787826320 | 19.44° C | 64% | 854.9 hPa | 0 mm | - | 742 W/m² | - |
| 1787825493 | 19.44° C | 64% | 854.7 hPa | 0 mm | - | 510 W/m² | - |
| 1787825120 | 19.44° C | 61% | 854.7 hPa | 0 mm | - | 682 W/m² | - |
* Rain latest hour (hover to see other rain measurements)
** Current wind speed in m/s (hover to see current wind gust speed)